www.pogodaiklimat.ru

Погода и климат >> Архив погоды >> Ирак >> Rifai


ПОГОДА в Rifai

  • Прогноз погоды в Rifai
  • Монитор погоды в Rifai
  • Климат города

АРХИВ ПОГОДЫ в Rifai

Время (UTC), дата Ветер
(напр.,м/с)
 
Видим.   Явления Облачность Т
(С)
Тd
(С)
f
(%)
Тe
(С)
Тes
(С)
Комфортность P
(гПа)
Po
(гПа)
Тmin
(С)
Tmax
(С)
R
(мм)
R24
(мм)
S
(см)
12 12.07 СЗ 8 5000 м пыльный позёмок ясно +46.8 +7.0 9 +47 +49 опасность
перегрева
994.5 995.0
15 12.07 З 7 8000 м пыль ясно +44.0 +7.8 12 +42 +42 опасность
перегрева
995.2 995.0
18 12.07 СЗ 5 10 км ясно +38.8 +11.9 20 +38 +38 очень
жарко
995.9 996.0 +47.0
21 12.07 СЗ 4 10 км ясно +36.2 +11.4 22 +35 +35 очень
жарко
995.7 996.0
00 13.07 СЗ 5 10 км ясно +34.8 +14.0 29 +36 +36 душно 995.6 996.0
03 13.07 З 5 10 км ясно +30.8 +13.5 35 +32 +33 жарко 996.3 996.0
06 13.07 С 7 8000 м пыль ясно +37.6 +10.1 19 +41 +44 опасность
перегрева
995.6 996.0 +30.2
09 13.07 СЗ 9 8000 м пыльный позёмок ясно +43.0 +6.8 11 +40 +43 очень
жарко
996.0 996.0
12 13.07 СЗ 11 8000 м пыльный позёмок ясно +44.8 +6.8 10 +42 +42 опасность
перегрева
995.5 996.0
15 13.07 С 6 10 км ясно +43.2 +9.3 13 +41 +42 опасность
перегрева
995.2 995.0
18 13.07 СЗ 4 10 км ясно +35.8 +12.3 24 +36 +36 очень
жарко
996.2 996.0 +45.0
21 13.07 СЗ 3 10 км ясно +33.0 +11.7 27 +33 +33 жарко 995.7 996.0
06 14.07 С 3 10 км ясно +35.2 +7.8 19 +33 +44 жарко 996.8 997.0 +27.6
09 14.07 СЗ 2 10 км ясно +42.2 +4.0 10 +39 +61 опасность
солнечного
удара
996.7 997.0
21 15.07 З 2 10 км ясно +35.2 +12.3 25 +35 +35 очень
жарко
995.3 995.0
09 16.07 СЗ 4 6000 м пыль 3/3 900 м
[Sc]
+44.0 +11.5 15 +43 +53 опасность
перегрева
996.1 996.0
12 16.07 СЗ 5 10 км 5/5 960 м
[Sc]
+43.8 +8.0 12 +42 +45 опасность
перегрева
995.5 996.0
15 16.07 СЗ 5 6000 м пыль ясно +42.4 +8.5 13 +40 +41 очень
жарко
995.8 996.0
18 16.07 З 4 10 км ясно +37.2 +12.6 23 +37 +37 очень
жарко
996.7 997.0 +44.8
09 17.07 З 7 5000 м пыль ясно +41.0 +4.1 11 +38 +44 очень
жарко
997.1 997.0
12 17.07 СЗ 7 5000 м пыль ясно +42.8 +4.0 9 +40 +43 очень
жарко
995.6 996.0
15 17.07 СЗ 5 10 км ясно +41.0 +7.7 13 +39 +39 очень
жарко
995.7 996.0
18 17.07 З 3 10 км ясно +34.4 +9.3 22 +33 +33 жарко 996.0 996.0 +43.0
21 17.07 СЗ 3 10 км ясно +31.2 +6.9 22 +30 +30 жарко 996.0 996.0
00 18.07 СЗ 3 10 км ясно +30.8 +7.3 23 +30 +30 жарко 995.3 995.0
03 18.07 З 2 10 км ясно +27.8 +7.8 28 +27 +28 жарко 996.4 996.0
06 18.07 СЗ 6 8000 м пыль ясно +35.0 +8.6 20 +33 +39 жарко 996.5 997.0 +27.6
09 18.07 СЗ 4 8000 м пыль ясно +41.4 +6.6 12 +39 +53 опасность
солнечного
удара
996.5 997.0
15 18.07 СЗ 3 8000 м пыль ясно +42.8 +7.7 12 +40 +41 очень
жарко
994.8 995.0
21 18.07 СЗ 2 10 км ясно +33.2 +9.9 24 +32 +32 жарко 996.1 996.0
00 19.07 СЗ 3 10 км ясно +30.8 +8.5 25 +30 +30 жарко 995.6 996.0
03 19.07 СЗ 3 10 км ясно +30.6 +8.1 25 +30 +30 жарко 996.8 997.0

 

Местоположение метеостанции Rifai (Ирак): широта 31.72 долгота 46.10 высота над уровнем моря 6 м.

В архиве по умолчанию представлена погода в Rifai за последнюю неделю. Архивные данные за месяц целиком и за предыдущие месяцы, начиная с января 2011 года, Вы можете получить, выбрав интересующий диапазон дат из раскрывающегося списка и нажав кнопку "Ввод!".


*Определитесь, кто Вы:
робот инопланетянин человек

Внимание! Время в таблицах - всемирное. Для получения местного времени необходимо прибавить поправку, которая в Rifai равна 3 ч.

Смотрите также архив погоды в соседних городах и на ближайших метеорологических станциях:

Погода в Kut-Al-Hai (Ирак) (50 км)
Погода в Nasiriya (Ирак) (72 км)
Погода в Samawah (Ирак) (92 км)
Погода в Ubaydah Bin Al Jarrah (Ирак) (92 км)
Погода в Ali Al-Gharbi (Ирак) (102 км)
Погода в Amarah (Ирак) (102 км)
Погода в Diwaniya (Ирак) (110 км)
Погода в Badrah (Ирак) (154 км)
Погода в Azizyah (Ирак) (165 км)
Погода в Najaf (Ирак) (171 км)

Пояснения к столбцам:

Ветер - указаны скорость ветра в м/с - средняя за 10 мин, порывы в срок и между сроками (в фигурных скобках) и направление, откуда дует ветер: С - северный, СВ - северо-восточный, В - восточный, ЮВ - юго-восточный, Ю - южный, ЮЗ - юго-западный, З - западный, СЗ - северо-западный.
Видимость - горизонтальная дальность видимости в метрах или километрах. При видимости от 1 до 10 км при отсутствии осадков обычно наблюдается дымка, при ухудшении видимости до 1 км и менее - туман. В сухую погоду видимость может ухудшаться дымом, пылью или мглою.
Явления - указаны атмосферные явления, наблюдавшиеся в срок или в последний час перед сроком; фигурными скобками обозначены явления, наблюдавшиеся между сроками (за 1-3 часа до срока); квадратными скобками обозначены град или гололедные отложения с указанием их диаметра в мм.
Облачность - указаны через наклонную черту общая и нижняя облачность в баллах и высота нижней границы облаков в метрах; квадратными скобками обозначены формы облаков: Ci - перистые, Cs - перисто-слоистые, Cc - перисто-кучевые, Ac - высококучевые, As - высокослоистые, Sc - слоисто-кучевые, Ns - слоисто-дождевые, Cu - кучевые, Cb - кучево-дождевые. Подробнее классификацию облаков см. в Атласе облаков (PDF).
T - Температура воздуха - температура, измеренная на высоте 2 м над землей.
Td - Температура точки росы - температура, при понижении до которой содержащийся в воздухе водяной пар достигнет насыщения.
f - Относительная влажность воздуха - влажноcть воздуха, измеренная на высоте 2 м над землей.
Te - Эффективная температура - температура, которую ощущает одетый по сезону человек в тени. Характеристика душности погоды. При расчете учитывается влияние влажности воздуха и скорости ветра на теплоощущения человека.
Tes - Эффективная температура на солнце - температура, которую ощущает человек, с поправкой на солнечный нагрев. Характеристика знойности погоды. Зависит от высоты солнца над горизонтом, облачности и скорости ветра. Ночью, в пасмурную погоду, а также при ветре 12 м/с и более поправка равна нулю.
P - Атмосферное давление - приведенное к уровню моря атмосферное давление.
Po - Атмосферное давление - измеренное на уровне метеостанции атмосферное давление.
Tmin - Минимальная температура - минимум температуры воздуха на высоте 2 м над землей.
Tmax - Максимальная температура - максимум температуры воздуха на высоте 2 м над землей.
R - Количество осадков - Количество выпавших осадков за период времени, мм. При наведении курсора мыши на число - период времени, за который выпало указанное количество осадков.
R24 - Количество осадков - Количество выпавших осадков за 24 часа, мм.
S - Снежный покров - Высота снежного покрова, см. При наведении курсора мыши на число - состояние снежного покрова и степень покрытия местности в баллах.